Beatrice, NE

4:06 PM CDT on May 29, 2017 (GMT -0500)
Beatrice Municipal

Weather History for KBIE - December, 2010

Change the Weather History Date:

Tuesday, December 28, 2010

  Actual Average Record
Temperature  
Mean Temperature 30 °F -  
Max Temperature 46 °F 36 °F 60 °F (1999)
Min Temperature 13 °F 17 °F 3 °F (1950)
Degree Days  
Heating Degree Days 36    
Moisture  
Dew Point 21 °F    
Average Humidity 80    
Maximum Humidity 96    
Minimum Humidity 51    
Precipitation  
Precipitation 0.00 in - - ()
Sea Level Pressure  
Sea Level Pressure 30.07 in    
Wind  
Wind Speed 3 mph (SSW)    
Max Wind Speed 12 mph    
Max Gust Speed -    
Visibility 7 miles    
Events      
Averages and records for this station are not official NWS values.
T = Trace of Precipitation, MM = Missing Value Source: NWS Daily Summary

Daily Weather History Graph

Daily Weather History Graph

Search for Another Location

Airport or City:

Trip Planner

Search our weather history database for the weather conditions in past years. The results will help you decide how hot, cold, wet, or windy it might be!

Date:

Astronomy

Dec. 28, 2010 Rise Set
Actual Time 7:49 AM CST 5:08 PM CST
Civil Twilight 7:18 AM CST 5:39 PM CST
Nautical Twilight 6:44 AM CST 6:13 PM CST
Astronomical Twilight 6:11 AM CST 6:46 PM CST
Moon 12:48 AM CST (12/28) 12:07 PM CST (12/28)
Length of Visible Light 10h 20m
Length of Day
9h 19m
Last Quarter, 44% of the Moon is Illuminated
Dec 28
Last Quarter
Jan 4
New
Jan 12
First Quarter
Jan 19
Full
Jan 26
Last Quarter

Hourly Weather History & Observations

Time (CST) Temp. Windchill Dew Point Humidity Pressure Visibility Wind Dir Wind Speed Gust Speed Precip Events Conditions
12:10 AM 17.4 °F 10.4 °F 16.3 °F 96% 30.12 in 4.0 mi West 4.6 mph - N/A   Clear
12:30 AM 17.2 °F - 15.6 °F 93% 30.12 in 4.0 mi Calm Calm - N/A   Clear
12:50 AM 18.3 °F 13.1 °F 16.7 °F 93% 30.12 in 5.0 mi West 3.5 mph - N/A   Clear
1:10 AM 15.8 °F - 13.6 °F 91% 30.11 in 7.0 mi Calm Calm - N/A   Clear
1:30 AM 16.9 °F 11.5 °F 14.9 °F 92% 30.12 in 5.0 mi South 3.5 mph - N/A   Clear
1:50 AM 16.3 °F 10.8 °F 14.9 °F 94% 30.12 in 5.0 mi SSW 3.5 mph - N/A   Clear
2:10 AM 16.5 °F - 14.4 °F 91% 30.11 in 5.0 mi Calm Calm - N/A   Clear
2:30 AM 17.2 °F 11.9 °F 15.4 °F 93% 30.11 in 5.0 mi SW 3.5 mph - N/A   Clear
2:50 AM 16.5 °F 11.0 °F 15.1 °F 94% 30.11 in 5.0 mi SW 3.5 mph - N/A   Clear
3:10 AM 18.3 °F 11.5 °F 16.7 °F 93% 30.11 in 5.0 mi WSW 4.6 mph - N/A   Clear
3:30 AM 18.0 °F 12.7 °F 16.3 °F 93% 30.11 in 5.0 mi West 3.5 mph - N/A   Clear
3:50 AM 16.7 °F - 15.4 °F 95% 30.11 in 5.0 mi Calm Calm - N/A   Clear
4:10 AM 17.6 °F 12.3 °F 16.2 °F 94% 30.11 in 5.0 mi West 3.5 mph - N/A   Clear
4:30 AM 16.5 °F 11.0 °F 15.1 °F 94% 30.10 in 5.0 mi West 3.5 mph - N/A   Clear
4:50 AM 16.7 °F 9.6 °F 15.3 °F 94% 30.10 in 5.0 mi West 4.6 mph - N/A   Clear
5:10 AM 17.6 °F 12.3 °F 15.8 °F 93% 30.10 in 5.0 mi West 3.5 mph - N/A   Clear
5:30 AM 15.8 °F 10.2 °F 14.0 °F 93% 30.11 in 5.0 mi West 3.5 mph - N/A   Clear
5:50 AM 16.3 °F 10.8 °F 14.4 °F 92% 30.11 in 5.0 mi West 3.5 mph - N/A   Clear
6:10 AM 14.9 °F 7.5 °F 12.9 °F 92% 30.11 in 5.0 mi WSW 4.6 mph - N/A   Clear
6:30 AM 15.3 °F 9.6 °F 13.5 °F 93% 30.11 in 5.0 mi WSW 3.5 mph - N/A   Clear
6:50 AM 14.9 °F - 13.1 °F 93% 30.12 in 5.0 mi Calm Calm - N/A   Clear
7:10 AM 13.8 °F - 11.8 °F 92% 30.12 in 7.0 mi Calm Calm - N/A   Clear
7:30 AM 14.9 °F - 12.9 °F 92% 30.12 in 7.0 mi Calm Calm - N/A   Clear
7:50 AM 14.7 °F - 12.2 °F 90% 30.12 in 7.0 mi Calm Calm - N/A   Clear
8:10 AM 14.5 °F - 11.8 °F 89% 30.12 in 5.0 mi Calm Calm - N/A   Clear
8:30 AM 15.4 °F - 13.3 °F 91% 30.12 in 5.0 mi Calm Calm - N/A   Clear
8:50 AM 15.3 °F - 12.6 °F 89% 30.12 in 5.0 mi Calm Calm - N/A   Clear
9:10 AM 17.4 °F - 15.3 °F 91% 30.12 in 5.0 mi Calm Calm - N/A   Clear
9:30 AM 19.2 °F - 16.9 °F 91% 30.13 in 5.0 mi Calm Calm - N/A   Clear
9:50 AM 21.2 °F - 19.4 °F 93% 30.12 in 5.0 mi Calm Calm - N/A   Clear
10:10 AM 23.0 °F - 21.2 °F 93% 30.12 in 5.0 mi Calm Calm - N/A   Clear
10:30 AM 25.5 °F - 22.1 °F 87% 30.12 in 5.0 mi Calm Calm - N/A   Clear
10:50 AM 27.5 °F - 23.5 °F 85% 30.11 in 7.0 mi Calm Calm - N/A   Clear
11:10 AM 30.0 °F - 25.3 °F 83% 30.10 in 5.0 mi Calm Calm - N/A   Haze
11:30 AM 33.1 °F 30.0 °F 26.1 °F 75% 30.09 in 7.0 mi SSE 3.5 mph - N/A   Clear
11:50 AM 36.1 °F 32.3 °F 26.1 °F 67% 30.08 in 7.0 mi South 4.6 mph - N/A   Clear
12:10 PM 37.9 °F 34.4 °F 28.6 °F 69% 30.07 in 10.0 mi SSE 4.6 mph - N/A   Clear
12:30 PM 40.3 °F 38.2 °F 30.7 °F 69% 30.06 in 10.0 mi SSE 3.5 mph - N/A   Clear
12:50 PM 42.1 °F 39.2 °F 30.6 °F 64% 30.05 in 10.0 mi South 4.6 mph - N/A   Clear
1:10 PM 43.3 °F 39.9 °F 30.4 °F 60% 30.03 in 10.0 mi South 5.8 mph - N/A   Clear
1:30 PM 44.6 °F 41.4 °F 30.0 °F 57% 30.02 in 10.0 mi South 5.8 mph - N/A   Clear
1:50 PM 45.9 °F 42.9 °F 28.9 °F 52% 30.01 in 10.0 mi South 5.8 mph - N/A   Clear
2:10 PM 46.4 °F 41.9 °F 29.3 °F 51% 30.00 in 10.0 mi South 9.2 mph - N/A   Clear
2:30 PM 46.4 °F 42.4 °F 29.1 °F 51% 29.99 in 10.0 mi South 8.1 mph - N/A   Clear
2:50 PM 46.2 °F 42.7 °F 29.1 °F 51% 29.98 in 10.0 mi SSW 6.9 mph - N/A   Clear
3:10 PM 46.0 °F 41.9 °F 28.6 °F 51% 29.98 in 10.0 mi South 8.1 mph - N/A   Clear
3:30 PM 45.7 °F 41.0 °F 28.6 °F 51% 29.98 in 10.0 mi South 9.2 mph - N/A   Clear
3:50 PM 45.1 °F 39.9 °F 28.9 °F 53% 29.97 in 10.0 mi South 10.4 mph - N/A   Clear
4:10 PM 44.2 °F 38.8 °F 29.7 °F 57% 29.97 in 10.0 mi South 10.4 mph - N/A   Clear
4:30 PM 42.6 °F 37.2 °F 29.7 °F 60% 29.97 in 10.0 mi South 9.2 mph - N/A   Clear
4:50 PM 40.8 °F 34.5 °F 28.9 °F 63% 29.96 in 10.0 mi South 10.4 mph - N/A   Clear
5:10 PM 39.2 °F 33.0 °F 28.4 °F 65% 29.96 in 10.0 mi South 9.2 mph - N/A   Clear
5:30 PM 37.4 °F 32.1 °F 27.5 °F 67% 29.96 in 10.0 mi South 6.9 mph - N/A   Clear
5:50 PM 38.3 °F 31.9 °F 28.4 °F 68% 29.95 in 10.0 mi South 9.2 mph - N/A   Clear
6:10 PM 38.3 °F 30.9 °F 27.5 °F 65% 29.95 in 10.0 mi South 11.5 mph - N/A   Clear
6:30 PM 36.7 °F 30.5 °F 27.0 °F 68% 29.95 in 10.0 mi South 8.1 mph - N/A   Clear
6:50 PM 35.6 °F 28.6 °F 26.6 °F 70% 29.95 in 10.0 mi South 9.2 mph - N/A   Clear
7:10 PM 34.9 °F 28.3 °F 27.0 °F 73% 29.94 in 10.0 mi SSE 8.1 mph - N/A   Clear
7:30 PM 33.4 °F 25.9 °F 26.2 °F 75% 29.93 in 10.0 mi SSE 9.2 mph - N/A   Clear
7:50 PM 32.9 °F 25.3 °F 26.1 °F 76% 29.93 in 10.0 mi South 9.2 mph - N/A   Clear
8:10 PM 32.0 °F 24.8 °F 26.4 °F 80% 29.93 in 10.0 mi South 8.1 mph - N/A   Clear
8:30 PM 32.0 °F 24.8 °F 26.2 °F 79% 29.92 in 10.0 mi South 8.1 mph - N/A   Clear
8:50 PM 32.0 °F 24.2 °F 26.4 °F 80% 29.91 in 10.0 mi SSE 9.2 mph - N/A   Clear
9:10 PM 32.0 °F 24.8 °F 26.1 °F 79% 29.91 in 10.0 mi SSE 8.1 mph - N/A   Clear
9:30 PM 31.6 °F 23.1 °F 25.9 °F 79% 29.90 in 10.0 mi SSE 10.4 mph - N/A   Clear
9:50 PM 32.0 °F 24.2 °F 25.7 °F 78% 29.88 in 10.0 mi SSE 9.2 mph - N/A   Clear
10:10 PM 32.0 °F 24.8 °F 24.8 °F 75% 29.88 in 10.0 mi SSE 8.1 mph - N/A   Clear
10:30 PM 31.3 °F 22.7 °F 25.7 °F 80% 29.87 in 10.0 mi SSE 10.4 mph - N/A   Clear
10:50 PM 31.6 °F 23.1 °F 25.7 °F 79% 29.87 in 10.0 mi South 10.4 mph - N/A   Clear
11:10 PM 31.5 °F 22.3 °F 25.7 °F 79% 29.87 in 10.0 mi South 11.5 mph - N/A   Clear
11:30 PM 31.5 °F 24.2 °F 25.5 °F 79% 29.86 in 10.0 mi South 8.1 mph - N/A   Clear
11:50 PM 31.5 °F 24.2 °F 25.9 °F 80% 29.85 in 10.0 mi South 8.1 mph - N/A   Clear